Time,TemperatureF,DewpointF,PressureIn,WindDirection,WindDirectionDegrees,WindSpeedMPH,WindSpeedGustMPH,Humidity,HourlyPrecipIn,Conditions,Clouds,dailyrainin,SoftwareType,DateUTC
2013-03-05 00:00:00,35.4,29.9,30.09,North,0,0.0,0.0,80,0.00,,---,0.00,VWS V14.00,2013-03-05 05:00:00,
2013-03-05 00:30:00,35.7,30.8,30.08,North,0,0.0,0.0,82,0.00,,---,0.00,VWS V14.00,2013-03-05 05:30:00,
2013-03-05 01:00:00,37.0,31.7,30.08,North,0,0.0,0.0,81,0.00,,---,0.00,VWS V14.00,2013-03-05 06:00:00,
2013-03-05 01:30:00,38.3,32.4,30.06,North,0,0.0,0.0,79,0.00,,---,0.00,VWS V14.00,2013-03-05 06:30:00,
2013-03-05 02:00:00,39.3,34.0,30.05,North,0,0.0,0.0,81,0.00,,---,0.00,VWS V14.00,2013-03-05 07:00:00,
2013-03-05 02:30:00,39.4,33.1,30.04,North,0,0.0,0.0,78,0.00,,---,0.00,VWS V14.00,2013-03-05 07:30:00,
2013-03-05 03:00:00,40.0,34.0,30.04,North,0,0.0,0.0,79,0.00,,---,0.00,VWS V14.00,2013-03-05 08:00:00,
2013-03-05 03:30:00,40.7,34.7,30.03,North,0,0.0,0.0,79,0.00,,---,0.00,VWS V14.00,2013-03-05 08:30:00,
2013-03-05 04:00:00,41.3,34.3,30.03,North,0,0.0,0.0,76,0.00,,---,0.00,VWS V14.00,2013-03-05 09:00:00,
2013-03-05 04:30:00,41.7,35.0,30.03,North,0,0.0,0.0,77,0.00,,---,0.00,VWS V14.00,2013-03-05 09:30:00,
2013-03-05 05:00:00,41.7,35.0,30.03,North,0,0.0,0.0,77,0.00,,---,0.00,VWS V14.00,2013-03-05 10:00:00,
2013-03-05 05:30:00,41.8,35.5,30.02,North,0,0.0,0.0,78,0.00,,---,0.00,VWS V14.00,2013-03-05 10:30:00,
2013-03-05 06:00:00,42.0,35.3,30.02,North,0,0.0,0.0,77,0.00,,---,0.00,VWS V14.00,2013-03-05 11:00:00,
2013-03-05 06:30:00,42.0,35.3,30.02,North,0,0.0,0.0,77,0.00,,---,0.00,VWS V14.00,2013-03-05 11:30:00,
2013-03-05 07:00:00,42.0,36.6,30.02,North,0,0.0,0.0,81,0.00,,---,0.00,VWS V14.00,2013-03-05 12:00:00,
2013-03-05 07:30:00,42.1,37.6,30.01,North,0,0.0,0.0,84,0.00,,---,0.00,VWS V14.00,2013-03-05 12:30:00,
2013-03-05 08:00:00,42.6,35.9,30.01,North,0,0.0,0.0,77,0.00,,---,0.00,VWS V14.00,2013-03-05 13:00:00,
2013-03-05 08:30:00,43.6,36.5,30.00,North,0,0.0,0.0,76,0.00,,---,0.00,VWS V14.00,2013-03-05 13:30:00,
2013-03-05 09:00:00,44.2,37.1,29.99,North,0,0.0,0.0,76,0.00,,---,0.00,VWS V14.00,2013-03-05 14:00:00,
2013-03-05 09:30:00,45.6,38.8,29.97,North,0,0.0,0.0,77,0.00,,---,0.00,VWS V14.00,2013-03-05 14:30:00,
2013-03-05 10:00:00,46.9,39.7,29.95,North,0,0.0,0.0,76,0.00,,---,0.00,VWS V14.00,2013-03-05 15:00:00,
2013-03-05 10:30:00,50.1,42.8,29.94,North,0,0.0,0.0,76,0.00,,---,0.00,VWS V14.00,2013-03-05 15:30:00,
2013-03-05 11:00:00,51.5,43.8,29.92,North,0,0.0,0.0,75,0.00,,---,0.00,VWS V14.00,2013-03-05 16:00:00,
2013-03-05 11:30:00,51.2,43.9,29.91,North,0,0.0,0.0,76,0.00,,---,0.00,VWS V14.00,2013-03-05 16:30:00,
2013-03-05 12:00:00,50.5,44.9,29.88,North,0,0.0,0.0,81,0.00,,---,0.00,VWS V14.00,2013-03-05 17:00:00,
2013-03-05 12:30:00,49.8,45.2,29.85,North,0,0.0,0.0,84,0.00,,---,0.00,VWS V14.00,2013-03-05 17:30:00,
2013-03-05 13:00:00,49.9,45.9,29.81,North,0,0.0,0.0,86,0.00,,---,0.00,VWS V14.00,2013-03-05 18:00:00,
2013-03-05 13:30:00,50.6,46.9,29.78,North,0,0.0,0.0,87,0.00,,---,0.00,VWS V14.00,2013-03-05 18:30:00,
2013-03-05 14:00:00,50.9,46.9,29.78,North,0,0.0,0.0,86,0.00,,---,0.00,VWS V14.00,2013-03-05 19:00:00,
2013-03-05 14:30:00,55.8,52.6,29.72,North,0,0.0,0.0,89,0.00,,---,0.01,VWS V14.00,2013-03-05 19:30:00,
2013-03-05 15:00:00,56.0,52.8,29.70,North,0,0.0,0.0,89,0.00,,---,0.01,VWS V14.00,2013-03-05 20:00:00,
2013-03-05 15:30:00,55.8,52.6,29.72,North,0,0.0,0.0,89,0.00,,---,0.01,VWS V14.00,2013-03-05 20:30:00,
2013-03-05 16:00:00,55.4,52.5,29.73,North,0,0.0,1.0,90,0.00,,---,0.01,VWS V14.00,2013-03-05 21:00:00,
2013-03-05 16:30:00,54.1,50.9,29.75,North,0,0.0,0.0,89,0.00,,---,0.01,VWS V14.00,2013-03-05 21:30:00,
2013-03-05 17:00:00,53.5,48.8,29.76,North,0,0.0,0.0,84,0.00,,---,0.01,VWS V14.00,2013-03-05 22:00:00,
2013-03-05 17:30:00,51.4,45.8,29.79,North,0,0.0,0.0,81,0.00,,---,0.01,VWS V14.00,2013-03-05 22:30:00,
2013-03-05 18:00:00,49.0,43.1,29.81,North,0,0.0,0.0,80,0.00,,---,0.01,VWS V14.00,2013-03-05 23:00:00,
2013-03-05 18:30:00,46.9,39.4,29.83,North,0,0.0,0.0,75,0.00,,---,0.01,VWS V14.00,2013-03-05 23:30:00,
2013-03-05 19:00:00,45.2,39.1,29.85,North,0,0.0,0.0,79,0.00,,---,0.01,VWS V14.00,2013-03-06 00:00:00,
2013-03-05 19:30:00,42.9,35.9,29.86,North,0,0.0,0.0,76,0.00,,---,0.01,VWS V14.00,2013-03-06 00:30:00,
2013-03-05 20:00:00,39.5,31.9,29.88,North,0,0.0,0.0,74,0.00,,---,0.01,VWS V14.00,2013-03-06 01:00:00,
2013-03-05 20:30:00,37.5,31.3,29.90,North,0,0.0,0.0,78,0.00,,---,0.01,VWS V14.00,2013-03-06 01:30:00,
2013-03-05 21:00:00,36.1,29.9,29.92,North,0,0.0,0.0,78,0.00,,---,0.01,VWS V14.00,2013-03-06 02:00:00,
2013-03-05 21:30:00,35.2,29.7,29.91,North,0,0.0,0.0,80,0.00,,---,0.01,VWS V14.00,2013-03-06 02:30:00,
2013-03-05 22:00:00,34.9,28.1,29.90,North,0,0.0,0.0,76,0.00,,---,0.01,VWS V14.00,2013-03-06 03:00:00,
2013-03-05 22:30:00,34.7,27.6,29.90,North,0,0.0,0.0,75,0.00,,---,0.01,VWS V14.00,2013-03-06 03:30:00,
2013-03-05 23:00:00,34.5,27.4,29.90,North,0,0.0,0.0,75,0.00,,---,0.00,VWS V14.00,2013-03-06 04:00:00,
2013-03-05 23:30:00,34.4,27.6,29.90,North,0,0.0,0.0,76,0.00,,---,0.00,VWS V14.00,2013-03-06 04:30:00,